Flag for U.S.A. Weather past 2 weeks in Louisville, Kentucky, U.S.A.

Now
70 °F

Passing clouds.


Feels Like: 77 °F
Forecast: 54 / 77 °F
Wind: 8 mph from Northeast

Location: Standiford Field

Current Time: Sep 18, 2014 at 8:43:18 PM

Latest Report: Sep 18, 2014 at 7:56 PM


Visibility: 10 mi

Pressure: 30.02 "Hg

Humidity: 51%

Dew point: 51 °F

Location of LouisvilleLocation

Historic Weather in Louisville — Graph

°F

Louisville temperature yesterday

Maximum temperature yesterday: 71 °F (at 3:56 PM)
Minimum temperature yesterday: 53 °F (at 3:56 AM)
Average temperature yesterday: 62 °F

Past Weeks' High & Low Weather Summary

 TemperatureHumidityPressure
High92 °F (Sep 4, 4:56 PM)93% (Sep 11, 1:56 AM)30.30 "Hg (Sep 11, 1:56 AM)
Low50 °F (Sep 14, 6:56 AM)35% (Sep 7, 2:56 PM)29.78 "Hg (Sep 10, 7:56 PM)
Average70 °F70%30.07 "Hg
* Reported Sep 3 6:56 PM — Sep 18 6:56 PM, Louisville, Weather by CustomWeather, © 2014

Note: Actual official high and low records may vary slightly from our data, if they occured in-between our weather recording intervals... More about our weather records

Advertising

Louisville weather history for previous 24 hours

 ConditionsComfort  
Time TempWeatherWind HumidityBarometerVisibility
6:56 PM
Sep 18
73 °FPassing clouds.8 mph46%30.01 "Hg10 mi
5:56 PM74 °FPassing clouds.9 mph43%30.01 "Hg10 mi
4:56 PM75 °FPassing clouds.9 mph43%30.02 "Hg10 mi
3:56 PM76 °FPassing clouds.12 mph42%30.03 "Hg10 mi
2:56 PM75 °FPartly sunny.8 mph45%30.05 "Hg10 mi
1:56 PM73 °FPartly sunny.8 mph46%30.05 "Hg10 mi
12:56 PM71 °FBroken clouds.10 mph49%30.05 "Hg10 mi
11:56 AM70 °FMore clouds than sun.14 mph49%30.08 "Hg10 mi
10:56 AM67 °FBroken clouds.10 mph57%30.07 "Hg10 mi
9:56 AM64 °FBroken clouds.9 mph63%30.06 "Hg9 mi
8:56 AM60 °FPartly sunny.7 mph78%30.04 "Hg7 mi
7:56 AM59 °FOvercast.6 mph81%30.03 "Hg6 mi
6:56 AM58 °FPassing clouds.3 mph84%30.01 "Hg8 mi
5:56 AM58 °FPassing clouds.6 mph84%30.00 "Hg8 mi
4:56 AM59 °FPassing clouds.No wind78%30.01 "Hg9 mi
3:56 AM58 °FPassing clouds.No wind84%30.00 "Hg9 mi
2:56 AM59 °FPassing clouds.3 mph84%30.00 "Hg9 mi
1:56 AM60 °FMostly cloudy.5 mph78%30.01 "Hg10 mi
12:56 AM59 °FPartly cloudy.No wind78%30.00 "Hg10 mi
11:56 PM
Sep 17
60 °FPassing clouds.7 mph75%30.00 "Hg10 mi
10:56 PM62 °FPassing clouds.7 mph73%29.98 "Hg10 mi
9:56 PM62 °FPassing clouds.5 mph73%29.98 "Hg10 mi
8:56 PM64 °FPassing clouds.5 mph68%29.96 "Hg10 mi
Weather by CustomWeather, © 2014

See weather overviewHow to use our weather pages